Location: Doverdale
(52.2833°N, 2.2000°W)
Time: 14:29:59
(UTC+00:00)

USA 308 - Pass Details

Date: 29 October 2020
Orbit: 571 x 578 km, 54.0° (Epoch: 23 November)

Event Time Altitude Azimuth Distance (km) Brightness Sun altitude
Rises 18:42:42 0° 290° (WNW) 2,788 7.8 -18.5°
Reaches altitude 10° 18:45:04 10° 283° (WNW) 1,886 6.7 -18.9°
Maximum altitude 18:49:02 38° 215° (SW) 889 4.1 -19.5°
Enters shadow 18:51:17 21° 161° (SSE) 1,293 4.5 -19.8°
